CZ-4C DEB (44211 NORAD) Tracking and Keplerian Element Data

This shows tracking and keplerian element data for the satellite.

Feedback or suggestion? Click here.




ElementValue
Catalog44211
NameCZ-4C DEB
Epoch Orbit383
Epoch Day145.81447894
Epoch Year2019
RAAN153.0731
Inclination97.4611
Eccentricity0.0020483
Argument of Perigee184.171
Mean Anonmoly175.9369
Mean Motion15.19352196
Decay Rate8.75E-06
L11 44211U 19024E 19145.81447894 .00000875 00000-0 44479-4 0 9995
L22 44211 97.4611 153.0731 0020483 184.1710 175.9369 15.19352196 3837

Live tracking and technical data element details for CZ-4C DEB (NORAD 44211). CZ-4C DEB can be tracked NOW for your location showing map with azimuth and elevation plus other details from your city location.

Track the satellite on the map from your city or location and see movement details for azimuth, elevation, latitude, longitude, range, height, and movement on the map or in text.







IsCatalogInMostPopularTable: catalog: 44211, numindb: 7
Update: records affected: 1



GetName: 44211 CZ-4C DEB

Hit Count: updated at: Sun, 26 May 2019 06:53:55 GMT